Regional Weather Roundup
Issued by NWS

Home | Current Version | Previous Version | Graphics & Text | Print | Product List | Glossary On
Versions: 1 2 3 4 5 6 7 8 9 10 11 12 13 14 15 16 17 18 19 20 21 22 23 24 25 26 27 28 29 30 31 32 33 34 35 36 37 38 39 40 41 42 43 44 45 46 47 48 49 50
000
ASUS43 KFSD 300210
RWRSD

WEATHER ROUNDUP FOR SOUTH DAKOTA
NATIONAL WEATHER SERVICE SIOUX FALLS SD
900 PM CDT FRI AUG 29 2014

NOTE: "FAIR" INDICATES FEW OR NO CLOUDS BELOW 12,000 FEET WITH NO
SIGNIFICANT WEATHER AND/OR OBSTRUCTIONS TO VISIBILITY.


SDZ001>005-009-010-012>017-300300-
NORTHWEST AND NORTH CENTRAL SOUTH DAKOTA

CITY           SKY/WX    TMP DP  RH WIND       PRES   REMARKS
BUFFALO          N/A     63  52  67 NE7       29.93S
FAITH            N/A     61  54  77 N8        29.97R
MOBRIDGE       CLEAR     63  58  83 N10       29.91R
$$

SDZ012>016-024>037-041>051-057-063-072>074-300300-
SOUTHWEST AND SOUTH CENTRAL SOUTH DAKOTA

CITY           SKY/WX    TMP DP  RH WIND       PRES   REMARKS
RAPID CTY ARPT CLEAR     63  53  70 NE6       30.00R
PIERRE         CLEAR     66  59  78 N8        29.90R
CUSTER         PTCLDY    60  51  72 CALM      30.11R
ELLSWORTH AFB  CLEAR     69  53  56 NE6       30.00R
PHILIP         CLEAR     66  57  72 N8        29.94R
PINE RIDGE     CLEAR     63  56  78 CALM      30.00R
WINNER         FAIR      69  56  62 NW12      29.92R
$$

SDZ004>011-016>023-039-040-300300-
NORTHEAST SOUTH DAKOTA

CITY           SKY/WX    TMP DP  RH WIND       PRES   REMARKS
ABERDEEN       MOCLDY    63  60  90 N12       29.87R
WATERTOWN      CLOUDY    70  65  84 N12       29.83R
SISSETON         N/A     69  66  90 N9        29.80R
$$

SDZ017-020-022-023-036>040-048>070-300300-
SOUTHEAST SOUTH DAKOTA

CITY           SKY/WX    TMP DP  RH WIND       PRES   REMARKS
SIOUX FALLS    CLOUDY    67  66  97 CALM      29.82R
HURON          CLOUDY    71  63  75 N15       29.84R
CHAMBERLAIN    MOCLDY    71  59  67 NW10      29.89R
MITCHELL       CLOUDY    67  65  93 NW5       29.83R
YANKTON        CLOUDY    66  64  94 MISG      29.82R
$$

ABBREVIATIONS USED IN REMARKS
   TC - TEMPERATURE IN CELSIUS
  WCI - WIND CHILL INDEX
   HX - HEAT INDEX
  VSB - VISIBILITY




USA.gov is the U.S. government's official web portal to all federal, state and local government web resources and services.